Probability
0 0 0 0 0 0 0 0 0 0 0 0 0 0 0 0 0 0 0 0 0 0 0 0 0 0 0 0 0 0 0 0 0 0 0 0 0 0 0 0 0 0 0 0
0 0 0 0 0 0 0 0 0 0 0 0 0 0 0 0 0 0 0 0 0 0 0 0 0 0 0 0 0 0 0 0 0 0 0 0 0 0 0 0 0 0 0 0
0 0 0 0 0 0 0 0 0 0 0 0 0 0 0 0 0 0 0 0 0 0 0 0 0 0 0 0 0 0 0 0 0 0 0 0 0 0 0 0 0 0 0 0
0 0 0 0 0 0 0 0 0 0 0 0 0 0 0 0 0 0 0 0 0 0 0 0 0 0 0 0 0 0 0 0 0 0 0 0 0 0 0 0 0 0 0 0
0 0 0 0 0 0 0 0 0 0 0 0 0 0 0 0 0 0 0 0 0 0 0 0 0 0 0 0 0 0 0 0 0 0 0 0 0 0 0 0 0 0 0 0
0 0 0 0 0 0 0 0 0 0 0 0 0 0 0 0 0 0 0 0 0 0 0 0 0 0 0 0 0 0 0 0 0 0 0 0 0 0 0 0 0 0 0 0
0 0 0 0 0 0 0 0 0 0 0 0 0 0 0 0 0 0 0 0 0 0 0 0 0 0 0 0 0 0 0 0 0 0 0 0 0 0 0 0 0 0 0 0
0 0 0 0 0 0 0 0 0 0 0 0 0 0 0 0 0 0 0 0 0 0 0 0 0 0 0 0 0 0 0 0 0 0 0 0 0 0 0 0 0 0 0 0
0 0 0 0 0 0 0 0 0 0 0 0 0 0 0 0 0 0 0 0 0 0 0 0 0 0 0 0 0 0 0 0 0 0 0 0 0 0 0 0 0 0 0 0
0 0 0 0 0 0 0 0 0 0 0 0 0 0 0 0 0 0 0 0 0 0 0 0 0 0 0 0 0 0 0 0 0 0 0 0 0 0 0 0 0 0 0 0
0 0 0 0 0 0 0 0 0 0 0 0 0 0 0 0 0 0 0 0 0 0 0 0 0 0 0 0 0 0 0 0 0 0 0 0 0 0 0 0 0 0 0 0
0 0 0 0 0 0 0 0 0 0 0 0 0 0 0 0 0 0 0 0 0 0 0 0 0 0 0 0 0 0 0 0 0 0 0 0 0 0 0 0 0 0 0 0
0 0 0 0 0 0 0 0 0 0 0 0 0 0 0 0 0 0 0 0 0 0 0 0 0 0 0 0 0 0 0 0 0 0 0 0 0 0 0 0 0 0 0 0
0 0 0 0 0 0 0 0 0 0 0 0 0 0 0 0 0 0 0 0 0 0 0 0 0 0 0 0 0 0 0 0 0 0 0 0 0 0 0 0 0 0 0 0
0 0 0 0 0 0 0 0 0 0 0 0 0 0 0 0 0 0 0 0 0 0 0 0 0 0 0 0 0 0 0 0 0 0 0 0 0 0 0 0 0 0 0 0
0 0 0 0 0 0 0 0 0 0 0 0 0 0 0 0 0 0 0 0 0 0 0 0 0 0 0 0 0 0 0 0 0 0 0 0 0 0 0 0 0 0 0 0
0 0 0 0 0 0 0 0 0 0 0 0 0 0 0 0 0 0 0 0 0 0 0 0 0 0 0 0 0 0 0 0 0 0 0 0 0 0 0 0 0 0 0 0
0 0 0 0 0 0 0 0 0 0 0 0 0 0 0 0 0 0 0 0 0 0 0 0 0 0 0 0 0 0 0 0 0 0 0 0 0 0 0 0 0 0 0 0
0 0 0 0 0 0 0 0 0 0 0 0 0 0 0 0 0 0 0 0 0 0 0 0 0 0 0 0 0 0 0 0 0 0 0 0 0 0 0 0 0 0 0 0
0 0 0 0 0 0 0 0 0 0 0 0 0 0 0 0 0 0 0 0 0 0 0 0 0 0 0 0 0 0 0 0 0 0 0 0 0 0 0 0 0 0 0 0
0 0 0 0 0 0 0 0 0 0 0 0 0 0 0 0 0 0 0 0 0 0 0 0 0 0 0 0 0 0 0 0 0 0 0 0 0 0 0 0 0 0 0 0
0 0 0 0 0 0 0 0 0 0 0 0 0 0 0 0 0 0 0 0 0 0 0 0 0 0 0 0 0 0 0 0 0 0 0 0 0 0 0 0 0 0 0 0
0 0 0 0 0 0 0 0 0 0 0 0 0 0 0 0 0 0 0 0 0 0 0 0 0 0 0 0 0 0 0 0 0 0 0 0 0 0 0 0 0 0 0 0
0 0 0 0 0 0 0 0 0 0 0 0 0 0 0 0 0 0 0 0 0 0 0 0 0 0 0 0 0 0 0 0 0 0 0 0 0 0 0 0 0 0 0 0
0 0 0 0 0 0 0 0 0 0 0 0 0 0 0 0 0 0 0 0 0 0 0 0 0 0 0 0 0 0 0 0 0 0 0 0 0 0 0 0 0 0 0 0
0 0 0 0 0 0 0 0 0 0 0 0 0 0 0 0 0 0 0 0 0 0 0 0 0 0 0 0 0 0 0 0 0 0 0 0 0 0 0 0 0 0 0 0
0 0 0 0 0 0 0 0 0 0 0 0 0 0 0 0 0 0 0 0 0 0 0 0 0 0 0 0 0 0 0 0 0 0 0 0 0 0 0 0 0 0 0 0
Wind_Speed
5 4 3 5 6 6 7 8 8 8 9 10 7 6 5 4 4 4 3 3 2 3 3 2 2 2 1 2 2 1 1 1 1 0 0 0 1 1 2 2 2 2 1 1
3 3 3 5 8 8 9 8 8 8 11 9 6 4 4 5 4 4 4 4 3 3 3 3 2 2 2 2 2 1 1 1 0 1 1 0 0 1 2 2 2 2 1 1
3 3 2 7 9 9 6 6 7 10 11 5 4 5 6 6 5 5 5 4 4 4 4 3 3 2 2 2 2 1 1 0 0 1 1 1 0 1 1 2 2 1 1 1
1 2 6 8 3 6 7 7 7 7 6 5 7 6 6 5 5 5 5 5 4 4 3 3 3 2 2 1 1 1 0 0 0 1 1 1 1 1 1 1 2 1 1 1
2 3 8 8 3 4 5 7 6 8 8 6 4 3 4 3 3 4 5 4 4 3 3 3 2 2 1 1 1 1 1 1 1 1 1 1 1 1 1 1 1 1 1 1
3 3 8 7 3 2 3 6 4 6 7 4 0 2 5 3 2 3 3 2 2 2 2 2 2 2 1 1 1 2 2 2 2 1 2 2 2 1 1 1 2 2 1 1
4 5 10 7 2 3 3 8 3 4 5 4 5 6 5 4 3 3 2 2 2 1 1 2 2 1 1 2 2 3 2 1 1 1 2 2 1 1 1 1 1 1 1 1
5 5 11 3 5 6 8 3 2 3 3 4 5 4 3 3 3 2 2 2 2 1 2 2 2 1 2 2 3 2 1 1 1 1 1 1 1 1 1 1 1 2 1 1
10 10 5 5 7 5 3 3 3 3 4 3 3 4 3 3 3 2 2 2 2 2 2 2 2 1 2 3 2 2 1 1 1 1 1 1 1 1 1 1 2 2 2 2
5 8 6 5 5 4 4 4 4 4 4 3 4 4 4 3 3 3 3 2 2 1 2 2 2 2 2 3 2 1 1 2 1 1 1 1 1 1 2 2 2 2 2 2
6 7 5 6 7 7 5 4 3 3 4 4 4 4 4 4 4 3 3 2 2 2 2 3 3 3 2 2 1 1 2 2 2 1 1 1 1 2 2 3 4 4 3 3
8 7 6 6 5 5 5 5 5 4 4 4 4 5 4 4 4 3 3 2 2 2 2 3 2 3 3 2 2 2 2 2 2 1 1 1 1 2 3 4 5 6 6 5
7 5 5 6 4 4 5 6 5 4 4 4 4 4 4 3 3 3 3 3 3 3 3 3 3 3 3 2 2 2 2 3 2 2 2 2 2 2 2 2 3 4 6 6
5 3 4 5 5 4 4 4 3 3 3 3 3 2 2 3 3 3 4 4 3 3 3 3 3 3 3 2 2 2 3 3 3 2 2 2 2 2 2 2 2 2 4 6
5 5 6 4 3 3 2 2 2 3 3 3 2 2 3 3 4 4 4 3 2 2 2 2 3 4 3 2 2 3 3 2 2 2 3 3 2 2 2 3 3 2 2 3
3 3 3 4 5 4 3 3 3 4 3 3 3 3 4 3 3 3 3 2 2 3 3 3 4 4 3 2 2 2 2 4 4 3 3 3 2 3 3 3 3 3 3 2
3 4 4 4 5 5 4 5 5 5 4 4 4 4 2 2 2 3 3 3 3 3 3 3 4 3 2 2 2 2 2 3 4 3 2 3 3 3 3 3 3 3 3 3
5 6 5 5 5 5 5 4 4 4 4 4 3 2 2 3 4 4 3 2 2 3 3 3 3 2 2 2 2 2 2 2 2 2 2 2 2 2 2 3 3 3 2 2
4 5 5 5 5 4 4 4 4 4 3 3 3 3 4 4 3 3 2 2 3 4 4 3 4 2 2 3 2 2 2 2 2 2 2 3 3 2 2 3 3 3 2 2
3 3 4 4 3 3 4 3 3 3 3 2 2 2 3 3 2 2 2 3 4 4 3 3 2 2 3 3 3 2 2 2 2 2 2 2 2 2 2 2 2 2 2 2
4 4 3 3 3 3 3 3 2 2 2 2 2 3 3 3 2 2 2 3 4 3 3 4 2 2 2 2 3 2 2 2 2 2 2 2 2 2 2 2 2 2 2 2
3 3 3 3 2 2 2 2 2 2 1 1 2 2 2 2 2 2 3 3 3 4 2 2 2 3 3 2 1 1 1 2 2 2 2 2 2 2 2 2 2 2 2 2
3 2 2 2 2 2 2 1 1 1 1 2 2 2 2 2 2 2 3 2 2 3 2 2 3 3 2 0 1 1 1 2 2 2 2 2 2 3 3 3 2 2 2 2
2 2 2 1 1 0 1 2 1 1 1 2 2 2 2 1 2 2 2 3 3 3 2 3 3 3 2 0 0 1 1 1 2 2 2 2 2 2 2 2 2 2 2 3
1 1 1 1 1 1 1 1 1 1 1 1 2 2 1 1 2 2 1 2 3 2 1 2 3 3 1 1 1 1 1 2 2 2 2 2 2 2 2 2 2 2 2 2
1 1 1 1 1 1 1 1 1 1 1 1 2 1 1 1 1 1 1 1 1 2 1 1 2 2 1 1 1 1 1 2 2 1 1 1 2 2 2 2 2 2 2 2
1 1 1 1 1 1 1 1 1 1 1 1 2 1 1 1 1 1 1 1 1 1 1 1 1 1 1 1 1 1 1 1 1 1 1 1 1 2 2 2 2 2 2 2
Wind_Direction
252 260 226 228 237 215 208 212 218 243 248 266 270 268 274 281 295 304 298 301 306 315 320 323 331 325 316 315 315 312 121 120 195 212 181 100 127 160 157 154 155 150 144 166
275 263 239 261 253 233 231 229 237 260 267 264 267 264 269 275 279 274 275 279 289 304 313 315 307 303 307 308 303 282 190 187 189 156 143 148 158 154 150 149 138 136 151 179
261 306 350 270 238 216 218 219 203 231 249 272 281 271 261 261 258 254 256 264 270 278 283 290 290 283 280 286 299 285 228 218 197 182 174 203 185 149 171 173 146 145 163 181
226 43 237 244 225 202 218 238 225 245 263 256 255 266 262 250 245 249 252 256 263 270 276 282 286 290 287 300 305 297 286 263 205 185 196 204 178 177 196 174 163 176 184 201
163 232 272 284 254 192 204 257 228 236 260 269 279 306 286 261 244 249 251 253 254 254 260 276 283 286 304 323 312 286 261 248 229 198 213 216 219 220 207 181 190 204 202 193
163 200 241 252 249 182 128 273 248 222 244 251 153 282 272 281 286 280 279 272 268 270 281 277 281 281 296 301 293 276 259 248 240 211 220 230 231 240 243 212 221 211 216 215
190 226 261 257 235 124 173 250 258 219 231 222 216 232 261 287 287 277 276 277 276 268 263 270 277 274 281 292 285 284 278 264 261 239 231 230 232 240 231 227 220 216 217 243
173 208 251 231 150 189 223 250 245 239 232 227 243 265 278 282 284 281 278 283 272 264 277 285 282 268 281 286 293 300 287 267 262 262 250 233 211 235 230 205 205 219 218 247
195 215 233 190 202 223 210 228 242 241 244 225 244 261 271 275 278 276 275 278 282 267 278 289 281 253 268 287 299 296 289 281 272 268 259 233 218 223 235 215 213 220 217 234
237 256 252 244 247 251 235 231 239 238 237 219 235 252 263 269 276 278 279 276 280 264 270 288 297 292 271 276 279 272 271 278 274 258 262 260 241 222 219 220 222 223 221 229
245 265 288 267 244 243 246 241 246 254 243 230 229 246 248 258 268 270 275 274 261 246 254 271 288 296 291 267 246 259 265 265 266 262 254 260 262 241 232 234 226 228 230 224
228 226 217 248 252 238 234 242 239 242 255 249 230 239 248 253 258 260 263 266 267 268 265 273 284 291 290 273 239 232 254 255 250 248 244 243 256 288 270 253 255 254 247 243
230 235 229 257 270 251 240 248 250 241 236 249 249 237 242 254 260 260 262 259 259 264 268 270 276 283 285 275 250 235 242 247 247 244 241 241 239 245 273 290 267 260 253 250
238 229 253 256 257 262 251 252 254 254 251 245 246 247 246 258 267 264 260 258 259 262 267 266 267 274 278 271 256 249 250 250 248 244 239 238 241 242 245 257 276 279 267 256
253 232 231 251 266 270 260 249 257 269 273 274 261 252 246 248 256 263 264 264 267 265 266 265 266 274 280 272 259 253 253 249 244 242 241 238 240 240 240 246 251 261 270 263
263 260 243 245 253 261 259 242 241 255 260 261 263 259 253 249 257 267 268 252 245 255 261 261 265 269 271 263 260 259 257 255 255 247 240 234 233 233 237 238 242 243 247 253
246 256 250 254 255 258 252 244 239 245 249 250 253 258 260 263 269 272 276 271 257 257 257 254 265 273 269 259 251 252 257 257 262 256 242 233 229 230 230 232 239 244 252 256
233 242 241 241 245 250 256 253 247 245 244 247 250 246 239 238 249 259 271 285 290 288 275 264 265 272 270 262 257 252 253 253 253 248 247 239 234 230 232 235 239 243 254 260
255 256 260 257 245 239 244 250 252 248 246 236 230 236 242 245 251 260 270 270 266 274 278 272 274 271 267 267 270 248 250 252 255 250 244 242 242 234 233 234 236 238 242 248
273 270 268 267 255 241 244 249 247 250 243 229 228 242 256 259 255 255 257 255 252 258 269 274 269 260 262 263 272 244 240 241 245 246 242 234 231 232 234 237 238 239 241 244
279 279 274 269 273 267 254 245 235 244 251 228 221 234 250 262 255 243 251 272 279 267 263 271 270 263 261 263 267 241 235 238 241 242 239 238 237 236 236 239 244 246 243 245
279 276 275 278 282 289 287 264 241 237 246 252 252 249 255 266 264 259 250 252 266 280 282 259 263 270 279 276 238 238 243 242 240 239 236 234 231 233 236 238 241 246 246 245
281 279 280 276 267 277 295 282 253 229 234 243 243 244 250 256 245 242 271 267 261 279 291 264 279 287 298 283 240 238 240 240 243 244 242 239 237 237 238 240 242 245 244 246
286 291 290 289 283 281 297 300 298 276 260 264 256 247 245 263 275 258 258 278 293 300 294 284 294 300 322 332 266 257 254 252 251 252 252 252 251 250 248 245 248 252 253 256
287 290 290 290 280 271 275 300 331 336 329 313 302 292 273 246 249 269 276 274 289 310 313 298 307 318 335 316 286 274 267 260 257 252 251 258 260 258 257 255 254 256 257 257
298 285 275 266 258 262 264 254 260 287 302 314 317 313 313 310 288 283 291 285 284 317 326 308 305 311 313 298 285 283 280 287 297 299 284 276 274 272 271 269 268 263 260 261
323 314 316 325 320 287 265 248 242 266 270 269 285 294 307 311 305 306 307 307 318 331 326 323 320 312 310 305 300 299 299 296 294 292 288 281 276 272 272 270 270 269 268 264